This is the latest recevied weather packets stored in our database for station/object DN9CHO-13. If no packets are shown the sender has not sent any weather packets the latest 10 day(s).
| Time | Temp. | Humidity | Pressure | Rain* | Wind** | Luminosity | Snow |
|---|---|---|---|---|---|---|---|
| 1788030331 | 17.78° C | 95% | 1012.2 hPa | 0 mm | - | 0 W/m² | - |
| 1788029727 | 17.78° C | 96% | 1012.2 hPa | 0 mm | - | 0 W/m² | - |
| 1788029123 | 17.78° C | 95% | 1012.4 hPa | 0.25 mm | - | 0 W/m² | - |
| 1788028520 | 17.78° C | 95% | 1012.4 hPa | 0.25 mm | - | 0 W/m² | - |
| 1788027928 | 17.78° C | 94% | 1012.4 hPa | 0.25 mm | - | 0 W/m² | - |
| 1788027332 | 17.78° C | 94% | 1012.5 hPa | 0.25 mm | - | 0 W/m² | - |
| 1788026729 | 18.33° C | 93% | 1012.6 hPa | 0.25 mm | - | 0 W/m² | - |
| 1788026125 | 18.33° C | 92% | 1012.5 hPa | 0.25 mm | - | 0 W/m² | - |
| 1788025522 | 18.89° C | 90% | 1012.5 hPa | 0 mm | - | 0 W/m² | - |
| 1788024918 | 18.89° C | 87% | 1012.6 hPa | 0 mm | - | 2 W/m² | - |
| 1788024334 | 20° C | 81% | 1012.9 hPa | 0 mm | - | 2 W/m² | - |
| 1788023731 | 21.11° C | 75% | 1013.1 hPa | 0 mm | - | 2 W/m² | - |
| 1788023127 | 21.67° C | 70% | 1012.9 hPa | 0 mm | - | 2 W/m² | - |
| 1788022524 | 21.67° C | 71% | 1012.8 hPa | 0 mm | - | 4 W/m² | - |
| 1788021920 | 21.11° C | 73% | 1012.8 hPa | 0 mm | - | 4 W/m² | - |
| 1788021316 | 21.11° C | 75% | 1012.8 hPa | 0 mm | - | 6 W/m² | - |
| 1788020733 | 21.11° C | 75% | 1012.9 hPa | 0 mm | - | 6 W/m² | - |
| 1788020129 | 21.11° C | 76% | 1013.1 hPa | 0 mm | - | 7 W/m² | - |
| 1788019525 | 21.11° C | 76% | 1013.3 hPa | 0 mm | - | 8 W/m² | - |
| 1788018922 | 21.11° C | 75% | 1013.4 hPa | 0 mm | - | 11 W/m² | - |
| 1788018318 | 20.56° C | 77% | 1013.4 hPa | 0 mm | - | 14 W/m² | - |
| 1788017735 | 21.11° C | 76% | 1013.5 hPa | 0 mm | - | 9 W/m² | - |
| 1788017131 | 21.11° C | 73% | 1013.6 hPa | 0 mm | - | 11 W/m² | - |
| 1788016527 | 21.11° C | 73% | 1013.8 hPa | 0 mm | - | 9 W/m² | - |
| 1788015924 | 21.11° C | 74% | 1013.7 hPa | 0 mm | - | 12 W/m² | - |
* Rain latest hour (hover to see other rain measurements)
** Current wind speed in m/s (hover to see current wind gust speed)